STARLINK-31810, 59799

Orbit data source: Space-Track

STARLINK-31810, 59799 is a payload satellite owned by SpaceX/Seattle (US) in LEO that was launched on Sat, 18 May 2024 UTC via an FALCON 9 launch vehicle from the Air Force Eastern Test Range (AFETR). Payload-class satellites include a variety of spacecraft equipped with specific instruments for various scientific and technological missions. These include communications satellites like Starlink; space stations such as the ISS; scientific satellites like the Hubble; Earth observation satellites from companies like Planet Labs, Umbra, and HawkEye 360; GPS; miniature CubeSats for education and research; and military/defense satellites.

Loading next visibility...
Identifier
59799, 2024-093T
Orbit
LEO
Country
Flag of USUS
Related business
Manufacturer
SpaceX/Seattle
Mission
Operational Commercial Communications
Bus & Motor
STARLINK V2M, Unknown motor
Mass
730 kg wet, ~700 kg dry
Launch date (UTC)
2024-05-18 (2 years ago)
Launch vehicle
FALCON 9
Launch site
Air Force Eastern Test Range (AFETR)
Object type
Payload
Rocket body
Debris
Shape & HBR
Box + 2 Pan, 17.7 m
Radar Cross Section
33.884 m², Large (>1 m²)

Expand to show TLE details & history
Last TLE update: 6 hours ago

TLE from 6 hours ago
0 STARLINK-31810
1 59799U 24093T   26126.29802255 -.00000858  00000-0 -21667-4 0  9996
2 59799  43.0011 243.7420 0002016 281.0676  78.9948 15.27566445111509
Epoch: 2026-05-06T07:09Z
TLE epoch observation values (Epoch: 2026-05-06T07:09:09.148Z)
Latitude
-0.00007°
Longitude
-87.70672°
Altitude
482.601 km
Speed
7.626 km/s
True Right ascension
16h 14m 58s
True Declination
0° 00' 00"
Sunlit
Object was in full shadow at epoch
Visualization orbit readout
Latitude
Unknown
Longitude
Unknown
Altitude
Unknown
Speed
Unknown
Apparent Right ascension
Unknown
Apparent Declination
Unknown
Sunlit
N/A
Visualization observer readout
Local Sidereal Time
21:18:40
Azimuth
Unknown
Elevation
Unknown
Doppler factor
Unknown
Orbital elements
Apogee altitude
486.418 km
Perigee altitude
483.651 km
Semi-major axis
6,863.172 km
Eccentricity
0.0002
Inclination
43.0011°
RAAN
243.742°
Arg. of periapsis
281.0676°
True anomaly
79.01748°
Mean anomaly
78.9948°
Eccentric anomaly
79.00614°
Mean motion
3.8173 °/min
Orbital period
94.31 mins
BSTAR
-0.000021667
Loading maneuver chart data...
Computing Atmospheric mass density...
Loading historical data...
Loading historical data...
Loading historical data...
Loading historical data...
Loading historical data...
Loading historical data...
Loading historical data...

Documentation

Showing up to 5 results
|